User: anonymous   Login
Location: George Washington National Forest Helicopter Landing Site
(38.6463°N, 79.0851°W)
Time: 19:54:04
(UTC-04:00)
Language:

Tiros 1 despin weight - Orbit

View from above orbital plane
View from above orbital plane
View from above satellite
View from above satellite

Ground track
Ground track

The orbit data is extracted from the following two-line orbital elements,

1   115U 60002D   19235.14855038 -.00000079  00000-0  17754-4 0  9994
2   115  48.1661 273.3485 0034184   8.4065 351.7414 14.83464112168532
Epoch (UTC): 23 August 2019 03:33:54
Eccentricity: 0.0034184
inclination: 48.1661°
perigee height: 594 km
apogee height: 642 km
right ascension of ascending node: 273.3485°
argument of perigee: 8.4065°
revolutions per day: 14.83464112
mean anomaly at epoch: 351.7414°
orbit number at epoch: 16853

The dashed part of the orbit path shows where the satellite is in the earth's shadow,  

DLR